• Processing (Info)

  • MPEC 2010-C35 : 2010 CJ1

    The following Minor Planet Electronic Circular may be linked-to from your own Web pages, but must not otherwise be redistributed electronically.

    A form allowing access to any MPEC is at the bottom of this page.


    Read MPEC 2010-C34 Read MPEC 2010-C36


    M.P.E.C. 2010-C35                                Issued 2010 Feb. 10, 00:32 UT
    
         The Minor Planet Electronic Circulars contain information on unusual
             minor planets and routine data on comets.  They are published
       on behalf of Commission 20 of the International Astronomical Union by the
              Minor Planet Center, Smithsonian Astrophysical Observatory,
                              Cambridge, MA 02138, U.S.A.
    
                 Prepared using the Tamkin Foundation Computer Network
    
                                  MPC@CFA.HARVARD.EDU
              URL http://www.cfa.harvard.edu/iau/mpc.html  ISSN 1523-6714
    
                                       2010 CJ1
    
    Observations:
         K10C01J* C2010 02 09.27598 08 56 37.17 +18 20 12.6          19.9 V EC035G96
         K10C01J  C2010 02 09.28568 08 56 38.47 +18 20 29.3          19.9 V EC035G96
         K10C01J  C2010 02 09.29544 08 56 39.73 +18 20 46.0          19.8 V EC035G96
         K10C01J  C2010 02 09.30512 08 56 41.06 +18 21 02.9          19.9 V EC035G96
         K10C01J KC2010 02 09.96624 08 58 27.32 +18 38 37.3                 EC035J95
         K10C01J KC2010 02 09.97254 08 58 28.21 +18 38 46.5                 EC035J95
         K10C01J KC2010 02 09.97856 08 58 28.96 +18 38 55.6          20.0 R EC035J95
    
    Observer details:
    G96 Mt. Lemmon Survey.  Observers R. A. Kowalski, G. M Hupe.  Measurers
        J. D. Ahern, E. C. Beshore, A. Boattini, G. J. Garradd, A. R. Gibbs,
        A. D. Grauer, R. E. Hill, R. A. Kowalski, S. M. Larson, R. H. McNaught.
        1.5-m reflector + CCD.
    J95 Great Shefford.  Observer P. Birtwhistle.  0.40-m f/6.0 Schmidt-Cassegrain
        + CCD.
    
    Orbital elements:
    2010 CJ1                                                 Earth MOID = 0.0173 AU
    Epoch 2010 Jan. 4.0 TT = JDT 2455200.5                  MPC
    M  11.15686              (2000.0)            P               Q
    n   0.50569128     Peri.  284.74735     +0.45318858     -0.89007817
    a   1.5603154      Node   138.19300     +0.84343134     +0.41043427
    e   0.4737838      Incl.    4.19765     +0.28851981     +0.19825376
    P   1.95           H   24.1           G   0.15           U   9
    Residuals in seconds of arc
    100209 G96  0.4+  0.0     100209 G96  0.1-  0.2+    100209 J95  0.0   0.4-
    100209 G96  0.3+  0.1-    100209 J95  0.4-  0.6+
    100209 G96  0.5-  0.2-    100209 J95  0.5+  0.1-
    
    Ephemeris:
    2010 CJ1                 a,e,i = 1.56, 0.47, 4                   q = 0.8211
    Date    TT    R. A. (2000) Decl.     Delta      r     Elong.  Phase     V
    2010 02 03    08 27.69   +12 58.0    0.0601   1.045   170.2     9.3    18.7
    2010 02 04    08 34.61   +14 18.5    0.0668   1.052   171.3     8.1    18.9
    2010 02 05    08 40.33   +15 23.7    0.0736   1.059   172.0     7.5    19.1
    2010 02 06    08 45.13   +16 17.5    0.0806   1.066   172.2     7.2    19.3
    2010 02 07    08 49.23   +17 02.3    0.0876   1.073   172.1     7.3    19.5
    2010 02 08    08 52.75   +17 40.2    0.0947   1.080   171.7     7.5    19.7
    2010 02 09    08 55.83   +18 12.5    0.102    1.087   171.2     7.9    19.9
    2010 02 10    08 58.53   +18 40.2    0.109    1.095   170.6     8.4    20.1
    2010 02 11    09 00.93   +19 04.2    0.116    1.102   170.0     9.0    20.2
    2010 02 12    09 03.08   +19 25.0    0.124    1.109   169.3     9.5    20.4
    2010 02 13    09 05.02   +19 43.2    0.131    1.116   168.5    10.1    20.6
    2010 02 14    09 06.78   +19 59.1    0.139    1.124   167.8    10.7    20.7
    2010 02 15    09 08.40   +20 13.0    0.147    1.131   167.0    11.3    20.9
    2010 02 16    09 09.89   +20 25.2    0.154    1.138   166.2    12.0    21.0
    2010 02 17    09 11.27   +20 35.9    0.162    1.146   165.4    12.6    21.2
    2010 02 18    09 12.56   +20 45.3    0.170    1.153   164.6    13.2    21.3
    2010 02 19    09 13.78   +20 53.4    0.178    1.160   163.8    13.8    21.5
    2010 02 20    09 14.93   +21 00.5    0.186    1.168   163.0    14.3    21.6
    2010 02 21    09 16.02   +21 06.7    0.194    1.175   162.2    14.9    21.7
    2010 02 22    09 17.07   +21 11.9    0.202    1.183   161.4    15.5    21.8
    2010 02 23    09 18.07   +21 16.4    0.211    1.190   160.6    16.1    22.0
    
    Timothy B. Spahr             (C) Copyright 2010 MPC           M.P.E.C. 2010-C35
    

    Read MPEC 2010-C34 Read MPEC 2010-C36


    MPEC number:

    Enter an MPEC number in one of the following forms:

    • 1997-B01 (the full form)
    • J97B01 (the packed version of the full form)
    • B01 (the abbreviated form)